Stations météo

réclame
Mon MeteoGroup
Spa/La Sauveniere, Belgique (6490): Température de l'air & dewpoint: 19.05.2018 13:00:00 - 25.05.2018 13:00:00 (CEST)Spa/La Sauveniere, Belgique (6490): Vitesse du vent & gusts: 19.05.2018 13:00:00 - 25.05.2018 13:00:00 (CEST)Spa/La Sauveniere, Belgique (6490): Direction du vent: 19.05.2018 13:00:00 - 25.05.2018 13:00:00 (CEST)Spa/La Sauveniere, Belgique (6490): reduced air pressure: 19.05.2018 13:00:00 - 25.05.2018 13:00:00 (CEST)Spa/La Sauveniere, Belgique (6490): visibility: 19.05.2018 13:00:00 - 25.05.2018 13:00:00 (CEST)
Date & Time tt [°C] td [°C] ff [km/h] ff [knt] fx [km/h] fx [knt] dd ppp [hPa] vv [km]
25.05.2018 13:00:00 - - - - - - - - -
25.05.2018 12:00:00 20,3 15,2 4 2 7 4 SW 1017,8 35
25.05.2018 11:00:00 17,8 13,8 4 2 - - NNE 1018,3 30
25.05.2018 10:00:00 18,0 14,3 7 4 14 8 NW 1018,2 30
25.05.2018 09:00:00 17,2 13,6 7 4 18 10 S 1017,9 24
25.05.2018 08:00:00 15,2 11,6 11 6 - - S 1018,1 18
25.05.2018 07:00:00 13,5 12,0 14 8 22 12 SSE 1018,1 11
25.05.2018 06:00:00 12,7 11,2 14 8 18 10 SSE 1018,0 5
25.05.2018 05:00:00 13,0 11,4 14 8 - - SSE 1017,7 -
25.05.2018 04:00:00 13,3 11,7 14 8 22 12 SSE 1017,7 5
25.05.2018 03:00:00 13,5 11,7 18 10 25 14 SSE 1017,7 -
25.05.2018 02:00:00 13,6 11,8 18 10 - - SSE 1017,8 -
25.05.2018 01:00:00 13,7 12,0 18 10 29 16 SSE 1017,8 9
25.05.2018 00:00:00 14,0 12,2 18 10 29 16 SSE 1017,5 10
24.05.2018 23:00:00 13,9 12,2 18 10 - - SSE 1017,6 12
24.05.2018 22:00:00 14,2 12,6 18 10 25 14 SSE 1017,1 14
24.05.2018 21:00:00 14,3 12,9 14 8 22 12 SSE 1017,1 8
24.05.2018 20:00:00 14,7 13,5 7 4 - - SSE 1016,7 17
24.05.2018 19:00:00 15,0 12,1 - - - - - 1016,9 4,4
24.05.2018 18:00:00 - - - - 18 10 - - -
24.05.2018 17:00:00 16,7 12,2 4 2 - - - 1016,0 12
24.05.2018 16:00:00 16,9 11,5 4 2 14 8 N 1016,5 11
24.05.2018 15:00:00 15,7 11,0 4 2 18 10 - 1017,2 6
24.05.2018 14:00:00 20,5 12,7 0 0 - - N 1016,5 19
24.05.2018 13:00:00 19,4 12,6 7 4 18 10 SSE 1017,1 22
24.05.2018 12:00:00 19,2 12,5 4 2 18 10 - 1017,3 21
24.05.2018 11:00:00 18,3 12,3 11 6 - - S 1017,8 22
24.05.2018 10:00:00 17,9 11,9 11 6 18 10 SE 1017,9 30
24.05.2018 09:00:00 16,0 10,8 4 2 11 6 - 1018,4 30
24.05.2018 08:00:00 14,7 10,0 7 4 - - ENE 1018,6 40
24.05.2018 07:00:00 15,0 10,0 14 8 22 12 SE 1018,5 35
24.05.2018 06:00:00 13,3 8,8 7 4 14 8 E 1018,9 30
24.05.2018 05:00:00 12,8 9,7 4 2 - - E 1019,2 23
24.05.2018 04:00:00 12,6 12,6 0 0 7 4 N 1019,7 13
24.05.2018 03:00:00 12,9 9,5 7 4 7 4 SE 1019,9 16
24.05.2018 02:00:00 13,4 9,6 7 4 - - ESE 1020,0 15
24.05.2018 01:00:00 13,3 9,6 4 2 18 10 ESE 1020,2 20
24.05.2018 00:00:00 14,8 10,4 11 6 22 12 SSE 1020,2 25
23.05.2018 23:00:00 15,8 11,0 11 6 - - S 1019,7 29
23.05.2018 22:00:00 16,4 11,0 7 4 18 10 SSE 1019,5 26
23.05.2018 21:00:00 - - - - - - - - -
23.05.2018 20:00:00 18,2 11,7 11 6 - - E 1018,3 30
23.05.2018 19:00:00 19,3 12,0 14 8 22 12 NE 1017,9 35
23.05.2018 18:00:00 18,1 13,9 4 2 11 6 N 1018,1 11
23.05.2018 17:00:00 17,5 13,3 4 2 - - NNW 1018,4 9
23.05.2018 16:00:00 17,2 12,7 4 2 18 10 NNE 1018,3 14
23.05.2018 15:00:00 17,7 14,2 7 4 14 8 NNW 1018,5 -
23.05.2018 14:00:00 16,5 13,8 4 2 - - N 1019,1 3,9
23.05.2018 13:00:00 16,4 13,6 4 2 11 6 N 1019,0 5
23.05.2018 12:00:00 15,1 14,2 4 2 11 6 N 1019,0 3,4
23.05.2018 11:00:00 14,6 12,0 4 2 - - N 1018,9 2,8
23.05.2018 10:00:00 13,7 11,2 4 2 7 4 ENE 1018,7 2,9
23.05.2018 09:00:00 12,6 9,6 4 2 14 8 W 1018,6 0,1
23.05.2018 08:00:00 13,6 12,2 11 6 - - SE 1017,5 -
23.05.2018 07:00:00 13,3 9,9 14 8 22 12 SSE 1017,0 3,6
23.05.2018 06:00:00 12,8 12,8 4 2 11 6 SSE 1016,8 2,8
23.05.2018 05:00:00 12,1 9,0 4 2 - - S 1016,7 1,6
23.05.2018 04:00:00 12,6 9,0 4 2 14 8 NE 1016,4 3,8
23.05.2018 03:00:00 12,8 10,2 7 4 11 6 E 1016,1 2,4
23.05.2018 02:00:00 12,1 12,1 4 2 - - SE 1016,2 2,8
23.05.2018 01:00:00 11,9 8,7 4 2 11 6 SSE 1016,3 2,9
23.05.2018 00:00:00 12,7 9,0 7 4 11 6 E 1016,1 -
22.05.2018 23:00:00 13,0 13,0 7 4 - - ENE 1015,9 5
22.05.2018 22:00:00 13,7 10,6 4 2 11 6 NNE 1015,0 3,3
22.05.2018 21:00:00 13,8 13,1 7 4 18 10 N 1014,6 3,5
22.05.2018 20:00:00 14,5 11,2 4 2 - - WNW 1014,1 16
22.05.2018 19:00:00 15,2 11,8 14 8 18 10 SE 1013,0 35
22.05.2018 18:00:00 15,1 11,5 4 2 11 6 NW 1013,7 18
22.05.2018 17:00:00 14,4 9,8 7 4 - - SW 1014,2 5
22.05.2018 16:00:00 14,8 10,4 4 2 14 8 - 1013,9 35
22.05.2018 15:00:00 17,5 11,9 4 2 14 8 - 1012,7 24
22.05.2018 14:00:00 17,5 12,0 11 6 - - SE 1012,5 35
22.05.2018 13:00:00 16,8 11,2 7 4 11 6 ESE 1012,8 19
22.05.2018 12:00:00 17,2 10,0 7 4 18 10 W 1012,4 27
22.05.2018 11:00:00 18,1 11,3 11 6 - - WNW 1012,2 29
22.05.2018 10:00:00 18,4 13,1 4 2 7 4 NNW 1012,1 35
22.05.2018 09:00:00 17,8 13,2 4 2 7 4 NW 1011,9 40
22.05.2018 08:00:00 16,2 11,1 4 2 - - SSW 1011,9 35
22.05.2018 07:00:00 13,3 9,0 4 2 14 8 SSE 1012,2 40
22.05.2018 06:00:00 12,1 7,8 14 8 18 10 SSE 1012,2 40
22.05.2018 05:00:00 13,3 8,2 14 8 - - SSE 1011,9 45
22.05.2018 04:00:00 13,4 8,1 11 6 14 8 S 1012,1 45
22.05.2018 03:00:00 14,3 8,3 11 6 18 10 SSE 1011,9 45
22.05.2018 02:00:00 13,8 7,8 14 8 - - SSE 1012,2 45
22.05.2018 01:00:00 14,0 7,6 11 6 14 8 SSE 1012,5 40
22.05.2018 00:00:00 13,9 7,0 14 8 14 8 SSE 1012,8 40
21.05.2018 23:00:00 15,1 6,7 11 6 - - SSE 1012,7 35
21.05.2018 22:00:00 14,9 6,5 7 4 11 6 SSE 1012,6 40
21.05.2018 21:00:00 17,5 7,4 7 4 14 8 SE 1011,9 45
21.05.2018 20:00:00 20,3 7,9 7 4 - - S 1011,2 40
21.05.2018 19:00:00 21,3 8,6 11 6 25 14 S 1010,9 40
21.05.2018 18:00:00 21,6 8,5 14 8 25 14 SSE 1011,1 25
21.05.2018 17:00:00 20,5 9,9 18 10 - - SE 1011,8 35
21.05.2018 16:00:00 20,3 9,6 14 8 29 16 SE 1012,4 30
21.05.2018 15:00:00 19,6 9,5 18 10 29 16 ESE 1012,8 35
21.05.2018 14:00:00 20,2 9,5 14 8 - - SE 1012,8 30
21.05.2018 13:00:00 19,4 8,9 22 12 36 19 ESE 1013,3 35
21.05.2018 12:00:00 18,6 9,2 18 10 32 18 SE 1013,7 26
21.05.2018 11:00:00 18,0 10,1 14 8 - - SE 1014,0 29
21.05.2018 10:00:00 16,0 9,3 14 8 36 19 SE 1014,7 26
21.05.2018 09:00:00 13,9 7,5 22 12 29 16 ESE 1015,4 30
21.05.2018 08:00:00 12,5 8,0 14 8 - - ESE 1016,2 40
21.05.2018 07:00:00 11,2 7,4 11 6 14 8 ESE 1016,8 29
21.05.2018 06:00:00 11,2 7,4 11 6 22 12 SE 1017,1 30
21.05.2018 05:00:00 11,8 7,6 14 8 - - ESE 1017,3 27
21.05.2018 04:00:00 12,3 7,7 22 12 29 16 ESE 1017,8 17
21.05.2018 03:00:00 11,8 8,4 7 4 11 6 E 1018,3 30
21.05.2018 02:00:00 11,4 8,1 11 6 - - SE 1018,8 26
21.05.2018 01:00:00 11,6 8,2 14 8 25 14 SSE 1019,9 21
21.05.2018 00:00:00 11,7 8,0 14 8 29 16 SSE 1019,8 25
20.05.2018 23:00:00 12,6 8,2 18 10 - - SE 1019,9 40
20.05.2018 22:00:00 12,7 8,2 18 10 29 16 SE 1019,6 35
20.05.2018 21:00:00 12,2 8,3 18 10 32 18 SE 1019,3 40
20.05.2018 20:00:00 12,4 8,4 22 12 - - SSE 1019,4 29
20.05.2018 19:00:00 11,9 7,2 18 10 54 29 SSE 1020,2 28
20.05.2018 18:00:00 13,4 8,2 32 18 54 29 SSE 1020,8 18
20.05.2018 17:00:00 17,2 6,7 14 8 - - E 1019,1 40
20.05.2018 16:00:00 18,9 7,6 18 10 32 18 E 1019,1 21
20.05.2018 15:00:00 20,1 8,4 22 12 32 18 E 1019,4 24
20.05.2018 14:00:00 19,0 7,6 18 10 - - ESE 1020,2 24
20.05.2018 13:00:00 18,8 8,2 14 8 25 14 ENE 1020,4 25
20.05.2018 12:00:00 18,3 7,6 11 6 25 14 ENE 1020,9 21
20.05.2018 11:00:00 16,5 7,0 7 4 - - NE 1021,6 24
20.05.2018 10:00:00 14,7 7,2 7 4 18 10 N 1022,0 19
20.05.2018 09:00:00 13,8 6,9 11 6 22 12 N 1022,1 19
20.05.2018 08:00:00 12,7 7,3 11 6 - - SE 1021,9 19
20.05.2018 07:00:00 10,5 5,6 11 6 22 12 SE 1022,1 18
20.05.2018 06:00:00 9,3 4,6 14 8 22 12 SE 1022,2 13
20.05.2018 05:00:00 9,4 4,8 14 8 - - SE 1022,0 13
20.05.2018 04:00:00 9,1 4,0 14 8 18 10 SE 1022,2 11
20.05.2018 03:00:00 6,2 1,6 4 2 7 4 SE 1023,3 -
20.05.2018 02:00:00 6,7 1,7 0 0 - - N 1023,7 -
20.05.2018 01:00:00 7,2 1,7 4 2 7 4 E 1023,5 -
20.05.2018 00:00:00 7,2 1,5 4 2 7 4 SE 1023,5 10
19.05.2018 23:00:00 8,6 1,9 7 4 - - ESE 1023,2 16
19.05.2018 22:00:00 8,9 2,3 4 2 11 6 E 1022,9 14
19.05.2018 21:00:00 10,1 3,7 7 4 18 10 NE 1022,1 12
19.05.2018 20:00:00 12,2 5,2 11 6 - - NNE 1021,5 11
19.05.2018 19:00:00 12,6 5,2 14 8 25 14 N 1021,4 11
19.05.2018 18:00:00 13,1 5,7 14 8 29 16 N 1021,5 11
19.05.2018 17:00:00 12,9 5,7 14 8 - - N 1021,8 10
19.05.2018 16:00:00 13,0 6,5 14 8 25 14 N 1021,9 10
19.05.2018 15:00:00 12,7 5,3 11 6 25 14 NNW 1022,1 10
19.05.2018 14:00:00 12,3 5,5 11 6 - - N 1022,4 -
19.05.2018 13:00:00 11,4 5,0 7 4 22 12 NNW 1022,7 -

tt = Température de l'air
td = dewpoint
ff = Vitesse du vent
fx = gusts
dd = Direction du vent
ppp = reduced air pressure
vv = visibility

stations d'obs. à proximité